Weather History for Morrisville, VT

Change the Weather History Date:

Friday, August 16, 2013

  Actual Average Record
Temperature  
Mean Temperature 61 °F 66 °F  
Max Temperature 75 °F 78 °F 87 °F (2002)
Min Temperature 47 °F 54 °F 46 °F (2001)
Degree Days  
Heating Degree Days 4 2  
Month to date heating degree days 33 27  
Since 1 June heating degree days 176 180  
Since 1 July heating degree days 46 57  
Cooling Degree Days 0 3  
Month to date cooling degree days 21 48  
Year to date cooling degree days 303 216  
Since 1 June cooling degree days 283 208  
Growing Degree Days 12 (Base 50)    
Moisture  
Dew Point 55 °F    
Average Humidity 75    
Maximum Humidity 100    
Minimum Humidity 49    
Precipitation  
Precipitation 0.21 in 0.15 in 1.30 in (2007)
Month to date precipitation 2.07 2.21  
Year to date precipitation 29.30 21.94  
Sea Level Pressure  
Sea Level Pressure 30.19 in    
Wind  
Wind Speed 1 mph (NNW)    
Max Wind Speed 15 mph    
Max Gust Speed 21 mph    
Visibility 6 miles    
Events Fog , Rain    
T = Trace of Precipitation, MM = Missing Value Source: NWS Daily Summary

Daily Weather History Graph

Daily Weather History Graph

Search for Another Location

Airport:

Trip Planner

Search our weather history database for the weather conditions in past years. The results will help you decide how hot, cold, wet, or windy it might be!

Date:

Astronomy

Aug. 16, 2013 Rise Set
Actual Time 5:54 AM EDT 7:53 PM EDT
Civil Twilight 5:23 AM EDT 8:25 PM EDT
Nautical Twilight 4:44 AM EDT 9:03 PM EDT
Astronomical Twilight 4:01 AM EDT 9:46 PM EDT
Moon 4:14 PM EDT (8/16) 12:50 AM EDT (8/16)
Length of Visible Light 15h 02m
Length of Day
13h 59m
Waxing Gibbous, 74% of the Moon is Illuminated
Aug 16
Waxing Gibbous
Aug 20
Full
Aug 28
Last Quarter
Sep 5
New
Sep 12
First Quarter

Hourly Weather History & Observations

Time (EDT) Temp. Dew Point Humidity Pressure Visibility Wind Dir Wind Speed Gust Speed Precip Events Conditions
7:38 AM 50.0 °F 48.2 °F 94% 30.15 in 1.2 mi Calm Calm - N/A   Overcast
7:43 AM 50.0 °F 48.2 °F 94% 30.15 in 3.0 mi Calm Calm - N/A   Mostly Cloudy
7:54 AM 51.1 °F 50.0 °F 96% 30.16 in 10.0 mi Calm Calm - N/A   Scattered Clouds
8:54 AM 59.0 °F 53.1 °F 81% 30.16 in 10.0 mi Calm Calm - N/A   Clear
9:54 AM 64.0 °F 54.0 °F 70% 30.16 in 10.0 mi Calm Calm - N/A   Clear
10:54 AM 71.1 °F 53.1 °F 53% 30.15 in 10.0 mi Variable 5.8 mph - N/A   Clear
11:54 AM 72.0 °F 51.1 °F 48% 30.14 in 10.0 mi Calm Calm - N/A   Mostly Cloudy
12:54 PM 72.0 °F 52.0 °F 49% 30.15 in 10.0 mi NNW 4.6 mph - N/A   Overcast
1:54 PM 71.1 °F 53.1 °F 53% 30.15 in 10.0 mi Calm Calm - N/A   Mostly Cloudy
2:54 PM 73.0 °F 53.1 °F 49% 30.14 in 10.0 mi Calm Calm - N/A   Overcast
3:54 PM 73.0 °F 53.1 °F 49% 30.14 in 10.0 mi Calm Calm - N/A   Mostly Cloudy
4:54 PM 73.0 °F 55.0 °F 53% 30.15 in 10.0 mi North 4.6 mph - N/A   Overcast
5:54 PM 73.9 °F 55.9 °F 53% 30.15 in 10.0 mi NW 4.6 mph - N/A   Mostly Cloudy
6:54 PM 69.1 °F 57.9 °F 68% 30.16 in 10.0 mi Calm Calm - N/A   Partly Cloudy
7:54 PM 66.0 °F 57.0 °F 73% 30.18 in 10.0 mi Calm Calm - N/A   Overcast
8:54 PM 64.0 °F 57.9 °F 80% 30.22 in 10.0 mi NNW 10.4 mph 16.1 mph 0.00 in Rain Light Rain
9:16 PM 60.8 °F 57.2 °F 88% 30.23 in 1.8 mi North 6.9 mph 19.6 mph 0.14 in Rain Heavy Rain
9:26 PM 60.8 °F 57.2 °F 88% 30.22 in 3.0 mi NNE 6.9 mph - 0.19 in Rain Light Rain
9:54 PM 60.1 °F 59.0 °F 96% 30.24 in 9.0 mi South 3.5 mph - 0.20 in Rain Light Rain
10:54 PM 60.1 °F 57.9 °F 93% 30.23 in 8.0 mi Calm Calm - 0.00 in   Overcast
11:03 PM 59.0 °F 57.2 °F 94% 30.23 in 1.8 mi Calm Calm - N/A   Overcast
11:08 PM 59.0 °F 57.2 °F 94% 30.23 in 0.8 mi Calm Calm - N/A   Overcast
11:21 PM 59.0 °F 57.2 °F 94% 30.24 in 0.5 mi Calm Calm - N/A Fog Fog
11:31 PM 57.2 °F 57.2 °F 100% 30.24 in 1.2 mi Calm Calm - N/A   Mostly Cloudy
11:34 PM 57.2 °F 57.2 °F 100% 30.24 in 3.0 mi Calm Calm - N/A   Mostly Cloudy
11:44 PM 57.2 °F 57.2 °F 100% 30.24 in 1.8 mi Calm Calm - N/A   Mostly Cloudy
11:48 PM 57.2 °F 57.2 °F 100% 30.24 in 0.8 mi Calm Calm - N/A   Mist
11:54 PM 57.9 °F 57.0 °F 97% 30.25 in 0.5 mi Calm Calm - N/A Fog Fog